Temperature
17 17 18 18 18 18 18 18 18 18 18 18 18 18 18 18 18 18 18 18 18 18 18 18 18 18 18 18 18 18 18 18 18 18 18 18 18 18 18 18 18 18 18
17 17 18 18 18 18 17 17 17 17 18 18 18 18 18 18 18 18 18 18 18 18 18 18 18 18 18 18 18 18 18 18 18 18 18 18 18 18 18 18 18 17 18
17 17 17 18 18 18 17 17 17 17 17 17 18 18 18 18 18 18 18 18 18 18 18 18 18 18 18 18 18 18 18 18 18 18 18 17 17 18 18 18 18 18 18
17 17 17 17 17 17 17 17 17 17 17 17 17 17 18 18 18 18 18 18 18 18 18 18 18 18 18 18 18 18 18 18 18 17 17 17 17 17 17 17 17 17 17
17 17 17 17 17 17 17 17 17 17 17 17 17 17 17 17 17 17 17 17 17 17 17 18 18 18 18 18 18 18 18 18 18 17 17 17 17 17 17 17 17 17 17
17 17 17 17 17 17 17 17 17 17 17 17 17 17 17 17 17 17 17 17 17 17 17 17 17 17 17 17 17 17 17 17 17 17 17 17 17 17 17 17 17 17 17
17 17 17 17 17 17 17 17 17 17 17 17 17 17 17 17 17 17 17 17 17 17 17 17 17 17 17 17 17 17 17 17 17 17 17 17 17 17 17 17 17 17 17
17 17 17 17 17 17 17 17 17 17 17 17 17 17 17 17 17 17 17 17 17 17 17 17 17 17 17 17 17 17 17 17 16 16 16 16 17 17 17 17 17 17 16
17 17 17 17 17 17 17 17 17 17 17 17 17 17 17 17 17 17 17 17 17 17 17 17 17 17 17 17 17 17 17 17 16 16 16 16 16 16 16 16 16 16 16
17 17 17 17 17 17 17 17 17 17 17 17 17 17 17 17 16 16 16 16 16 17 17 17 17 17 17 16 16 16 16 16 16 16 16 16 16 16 16 16 16 16 16
17 17 17 17 17 17 17 17 17 17 17 17 17 17 16 16 16 16 16 16 16 16 16 16 16 16 16 16 16 16 16 16 16 15 15 16 16 16 16 16 16 15 16
18 18 17 17 17 17 16 16 16 16 16 16 16 16 16 16 16 16 16 16 16 16 16 16 16 16 16 16 16 16 15 15 15 15 15 15 15 15 15 15 15 15 15
18 17 17 17 17 17 17 16 16 16 16 16 16 16 16 16 16 16 16 16 16 16 16 16 15 15 15 15 15 15 15 15 15 15 15 15 15 15 15 15 15 15 15
18 18 17 17 17 17 17 17 16 16 16 16 16 16 16 16 16 16 16 16 16 16 16 15 15 15 15 15 15 15 15 15 15 15 15 15 15 15 15 15 15 15 14
18 18 17 17 17 17 17 16 16 16 16 16 16 16 16 16 16 16 16 15 16 15 15 15 15 15 15 15 15 15 15 15 15 14 15 15 15 15 15 14 14 14 14
18 18 17 17 17 17 17 17 17 16 16 16 16 16 16 16 16 15 15 15 15 15 15 15 15 15 15 15 15 15 14 14 14 14 14 14 14 14 14 14 14 14 14
18 18 18 17 17 17 17 17 17 16 16 16 16 16 16 16 16 16 15 15 15 15 15 15 15 15 15 15 14 14 14 14 14 14 14 14 14 14 14 14 14 14 14
18 18 18 17 17 17 17 17 17 16 16 16 16 16 16 16 16 15 15 15 15 15 15 15 15 15 14 14 14 14 14 14 14 14 14 14 14 14 14 14 14 14 14
18 18 18 17 17 17 17 17 17 17 16 16 16 16 16 16 16 15 15 15 15 15 15 15 15 14 14 14 14 14 14 14 14 14 14 14 14 13 13 14 14 14 13
18 18 18 17 17 17 17 17 17 17 16 16 16 16 16 16 16 15 15 15 15 15 15 15 15 14 14 14 14 14 14 14 14 14 13 13 13 13 13 13 13 13 13
18 18 18 17 17 17 17 17 17 17 16 16 16 16 16 16 16 15 15 15 15 15 15 14 14 14 14 14 14 14 14 14 14 13 13 13 13 13 13 13 13 13 13
17 17 17 17 17 17 17 17 17 17 16 16 16 16 16 16 16 15 15 15 15 15 15 14 14 14 14 14 14 14 15 14 13 13 13 13 13 13 13 13 12 12 12
17 17 17 17 17 17 17 17 16 16 16 16 16 16 16 16 16 15 15 15 15 15 14 14 14 14 14 14 14 14 15 15 14 13 13 13 12 12 12 12 12 12 12
17 17 17 17 17 17 17 16 16 16 16 16 16 16 16 16 16 15 15 15 15 15 14 14 14 14 14 14 13 13 14 14 14 14 13 13 12 12 12 12 12 12 12
16 16 16 17 17 17 17 16 16 16 16 16 16 16 16 15 15 15 15 15 15 15 14 14 14 14 14 13 13 13 13 13 13 14 14 13 12 12 12 12 12 12 11
16 16 16 16 16 16 16 16 16 16 16 16 16 16 15 15 15 15 15 15 15 14 14 14 14 14 13 13 13 13 13 13 13 13 13 13 13 12 12 12 11 11 11
Wind_Speed
3 4 6 5 6 7 7 8 8 8 9 10 10 10 10 10 11 10 11 11 10 9 9 9 9 9 9 9 9 8 8 7 7 7 7 7 6 6 6 5 4 5 7
4 5 7 5 6 7 8 8 9 9 9 10 10 10 11 11 12 12 12 11 11 11 11 11 10 10 10 9 9 9 8 8 7 6 6 7 7 7 6 5 4 6 6
5 6 7 7 6 7 8 8 9 9 9 9 9 10 10 11 12 12 11 11 12 12 12 12 11 11 10 10 9 9 9 8 7 5 3 5 7 7 6 6 6 6 6
6 6 8 8 7 7 8 8 8 9 9 9 9 10 10 11 11 11 11 12 12 12 12 12 11 11 11 10 10 9 9 8 6 3 4 5 5 9 7 7 6 6 6
6 7 9 8 8 8 8 8 9 9 9 9 10 10 11 10 11 12 12 12 13 13 12 12 12 12 11 10 10 10 9 8 6 4 5 5 6 8 7 6 6 5 5
6 7 9 8 8 8 8 8 9 9 9 9 10 11 11 11 11 12 12 13 13 12 12 12 12 12 12 11 11 11 9 7 4 6 6 6 6 8 6 6 5 6 5
6 7 9 8 9 9 9 9 9 9 9 10 11 11 12 12 12 13 12 12 12 12 12 12 12 12 13 12 12 11 9 6 6 6 6 6 7 8 7 6 6 6 6
6 6 8 8 8 9 9 9 9 9 10 10 11 11 12 13 13 13 12 12 12 13 13 13 13 13 13 13 12 11 9 6 6 7 7 7 8 7 7 6 6 6 6
5 5 6 6 7 8 10 10 9 10 10 10 11 11 11 12 12 12 13 13 13 13 13 13 13 13 13 13 12 11 9 7 6 6 7 7 8 7 6 6 6 6 6
5 5 5 6 6 6 8 10 10 10 10 10 10 9 8 9 11 11 12 13 13 13 13 13 13 13 13 13 12 10 7 5 8 7 7 8 8 7 7 7 7 6 6
4 4 4 5 5 6 7 8 8 8 8 7 8 8 5 8 9 9 13 13 13 13 12 12 12 11 10 11 10 7 5 7 8 8 9 10 9 9 9 9 8 8 8
5 4 4 4 5 5 5 5 5 6 6 6 7 6 6 7 8 9 12 12 12 11 11 10 8 7 6 7 7 5 7 8 8 8 10 11 10 10 10 10 9 10 9
5 4 4 3 4 4 4 4 4 4 5 5 6 6 6 6 6 7 6 8 8 8 8 7 6 7 8 7 7 7 7 7 7 8 10 11 11 11 10 10 11 11 9
4 4 3 3 4 4 4 4 3 4 4 4 4 6 5 4 5 5 5 6 6 6 6 6 6 7 8 8 8 8 8 7 7 7 10 12 12 11 11 11 11 11 10
4 4 4 3 3 4 4 3 3 3 3 4 4 4 5 4 4 4 5 5 5 5 5 5 6 7 7 8 8 8 8 8 8 8 9 12 12 12 11 11 11 11 11
5 4 4 4 3 3 4 3 3 3 3 3 3 3 4 4 4 4 4 4 5 5 5 4 6 5 5 6 7 8 8 8 8 8 8 10 12 12 12 11 11 11 11
5 4 4 4 4 4 4 3 3 3 3 3 3 3 3 4 4 4 3 4 4 4 5 5 5 5 5 5 6 7 7 7 7 8 8 7 8 11 11 11 10 10 10
4 4 5 4 4 4 4 3 3 3 3 2 3 2 3 3 3 3 3 3 3 4 3 3 3 3 4 4 5 5 5 5 6 7 7 7 7 7 9 10 10 9 9
4 4 5 5 5 5 4 4 3 3 2 2 2 2 2 3 3 3 2 2 3 3 3 2 3 3 3 4 4 4 4 4 4 5 6 6 6 6 6 8 8 9 9
4 4 4 5 4 4 4 4 3 2 2 2 1 2 2 2 2 3 2 2 2 2 2 2 3 2 2 2 3 3 4 4 3 4 5 5 5 6 6 6 5 7 8
4 4 4 4 4 4 4 4 3 3 2 2 1 1 1 2 2 2 1 1 1 1 1 2 2 2 2 1 1 2 3 3 3 3 3 3 4 5 5 6 5 5 5
5 5 5 5 5 5 4 4 3 2 2 1 1 1 1 2 2 1 1 1 1 1 2 2 2 1 1 0 0 0 1 2 2 2 2 2 3 3 4 5 5 5 5
5 5 6 6 6 5 5 3 3 2 2 2 2 1 1 2 2 2 1 1 1 1 2 2 2 1 1 0 1 1 1 1 1 1 2 1 2 3 3 4 4 5 5
4 4 5 6 5 5 5 4 4 4 3 2 2 2 2 2 2 2 2 1 1 1 2 2 2 2 1 1 0 1 2 1 1 0 1 1 2 2 2 2 3 4 5
3 3 3 4 5 5 5 5 5 4 3 2 2 2 2 2 2 2 2 2 1 1 2 2 2 2 2 1 1 0 0 0 2 1 1 1 1 1 2 2 2 2 3
3 2 2 3 4 4 5 5 5 5 4 3 3 3 2 2 1 2 2 2 2 2 2 2 2 2 2 1 1 1 1 1 1 1 2 2 1 1 1 1 1 2 2
Wind_Direction
61 56 54 51 64 67 73 75 73 72 72 72 73 75 74 71 73 81 83 80 77 76 84 95 98 99 99 95 95 96 96 97 97 93 93 92 93 95 102 113 123 112 100
81 72 69 59 66 71 74 76 73 73 71 72 73 75 75 74 73 75 78 77 75 74 83 91 93 91 90 88 89 89 86 89 92 94 101 102 92 90 95 93 75 87 103
86 83 84 66 66 70 75 76 73 71 70 73 75 76 75 74 73 75 77 78 77 75 78 83 84 85 85 84 86 85 82 79 81 86 108 103 97 89 89 88 86 91 101
86 81 72 66 67 69 74 78 76 74 72 74 74 76 77 75 74 75 76 78 77 75 76 78 80 83 85 84 84 84 82 79 75 76 90 87 92 90 84 78 80 89 96
87 80 75 61 67 71 73 77 79 78 77 77 75 76 75 76 76 76 77 77 77 77 76 76 77 81 82 82 81 78 78 78 79 75 72 75 78 84 80 74 73 77 96
90 85 80 63 67 68 70 75 76 75 77 77 77 75 75 74 77 78 78 78 78 78 77 76 77 79 79 78 77 76 75 71 78 72 70 73 78 82 77 75 75 74 81
91 85 83 68 68 67 69 75 76 74 74 75 74 74 73 74 77 78 78 79 79 80 80 77 76 78 77 77 75 72 67 56 65 71 73 74 74 74 75 74 72 70 74
98 92 90 84 72 67 70 75 75 75 75 75 74 74 74 75 78 78 80 80 82 81 80 77 77 77 77 75 74 70 61 37 65 64 69 71 74 75 74 72 70 68 69
105 95 88 95 93 86 77 74 78 78 76 76 76 74 75 78 78 77 79 79 81 81 80 80 80 80 77 75 71 67 61 46 56 59 61 64 69 75 77 71 74 69 68
110 97 89 89 91 99 97 82 78 78 76 77 79 79 84 92 87 83 83 77 78 80 80 80 80 80 77 73 68 62 53 50 56 59 57 62 67 75 79 75 74 69 70
120 106 95 93 93 93 92 97 96 91 82 92 95 94 97 88 85 87 78 76 76 80 81 80 81 83 84 81 69 53 47 57 58 57 55 58 66 73 75 75 70 67 71
134 117 105 100 100 96 92 100 96 93 91 83 84 90 87 83 80 82 89 82 80 80 87 84 88 95 81 76 74 58 56 57 59 61 56 54 60 68 70 70 68 67 70
132 125 124 115 107 103 101 92 90 89 88 84 81 86 89 90 94 87 89 91 85 82 77 88 88 71 68 64 58 59 53 52 57 60 57 52 59 67 69 66 65 64 67
145 139 138 131 126 116 108 101 99 95 91 85 83 81 85 86 85 86 83 79 75 71 66 66 71 72 70 69 67 65 61 56 58 63 63 56 59 63 67 68 67 63 65
161 161 154 155 142 130 114 112 111 103 98 99 88 87 90 91 87 88 84 81 75 72 70 69 74 72 67 64 65 64 62 61 61 62 71 60 56 60 65 69 67 64 67
175 173 160 169 162 151 140 140 117 109 111 99 94 92 95 95 90 88 84 79 73 70 67 70 78 77 71 68 67 65 62 61 62 63 67 71 66 63 61 63 66 65 63
178 179 171 177 178 170 152 137 122 124 116 105 101 103 104 100 102 98 87 82 78 79 76 69 77 77 77 76 72 66 63 60 62 61 62 63 71 72 64 59 62 64 62
180 181 173 179 187 180 168 158 142 135 118 109 106 106 107 109 108 101 95 89 89 85 81 74 74 80 79 76 73 67 67 65 61 58 62 64 60 64 70 61 58 61 62
185 178 169 175 182 181 172 163 149 145 132 119 116 111 108 110 114 113 102 104 98 88 82 81 74 74 80 80 82 73 67 67 65 60 59 58 59 58 61 72 68 60 55
184 177 167 167 176 170 168 170 161 157 151 129 117 123 120 125 128 118 129 126 116 115 103 98 96 86 80 86 87 79 71 71 66 63 54 53 52 53 52 57 66 67 60
184 183 175 174 174 173 174 180 181 177 173 156 128 123 141 153 154 141 150 133 133 139 136 117 105 108 97 95 105 100 100 89 71 69 60 50 54 49 48 48 49 50 67
194 199 193 185 182 183 187 187 176 168 174 163 154 153 152 152 153 145 168 158 161 159 160 138 129 125 93 102 342 191 145 140 104 74 71 58 45 49 44 42 50 46 40
203 202 201 192 186 185 180 179 167 163 179 179 182 169 143 156 157 159 175 173 176 189 174 170 174 177 179 112 342 316 306 15 53 123 78 68 52 38 35 32 39 42 43
202 208 205 194 188 183 180 184 186 192 195 206 191 165 146 145 154 160 168 188 176 172 188 187 197 204 201 201 147 322 334 358 297 265 132 77 55 36 27 28 28 40 41
182 191 210 196 186 182 185 185 197 199 199 191 184 172 169 153 152 157 177 183 184 180 197 185 195 223 207 217 223 234 296 307 287 290 301 341 31 33 25 20 26 34 37
164 169 188 197 191 183 186 192 196 201 198 189 188 186 179 159 165 169 187 195 198 199 207 198 195 210 226 221 237 237 250 255 271 272 282 302 334 12 34 31 14 27 31
Height
1523 1522 1520 1520 1519 1519 1518 1518 1518 1518 1517 1517 1516 1516 1515 1514 1513 1512 1513 1513 1513 1512 1511 1512 1514 1515 1516 1516 1516 1517 1517 1517 1518 1518 1518 1518 1519 1519 1520 1520 1520 1521 1520
1524 1523 1521 1521 1521 1520 1520 1520 1519 1519 1519 1518 1518 1517 1517 1516 1515 1514 1515 1515 1515 1513 1511 1513 1515 1517 1517 1517 1517 1518 1518 1518 1519 1519 1519 1519 1520 1520 1520 1520 1521 1521 1521
1525 1524 1523 1523 1522 1522 1521 1521 1521 1520 1520 1520 1519 1519 1519 1518 1518 1517 1517 1517 1517 1516 1515 1516 1517 1518 1519 1519 1519 1519 1519 1519 1520 1520 1520 1521 1521 1520 1521 1521 1521 1521 1521
1526 1526 1525 1524 1524 1523 1523 1523 1522 1522 1521 1521 1521 1521 1520 1520 1520 1519 1519 1519 1519 1519 1519 1519 1519 1520 1520 1520 1520 1520 1521 1521 1521 1521 1522 1522 1522 1521 1522 1522 1522 1522 1522
1528 1527 1526 1525 1525 1525 1524 1524 1524 1523 1523 1523 1522 1522 1522 1522 1521 1521 1521 1521 1521 1521 1521 1521 1522 1522 1522 1522 1522 1522 1522 1522 1522 1522 1522 1522 1522 1522 1522 1522 1522 1522 1522
1529 1529 1528 1527 1527 1526 1526 1526 1525 1525 1524 1524 1524 1524 1523 1523 1523 1523 1523 1523 1522 1523 1523 1523 1523 1523 1523 1523 1523 1523 1523 1523 1523 1523 1523 1522 1522 1522 1522 1522 1522 1522 1522
1531 1530 1530 1528 1528 1528 1527 1527 1527 1526 1526 1526 1525 1525 1525 1525 1524 1524 1524 1524 1524 1524 1524 1524 1524 1524 1524 1524 1524 1524 1524 1523 1524 1524 1523 1523 1523 1523 1523 1522 1522 1522 1522
1532 1532 1531 1530 1529 1529 1529 1528 1528 1528 1528 1527 1527 1527 1526 1526 1526 1526 1526 1526 1526 1526 1526 1526 1526 1526 1525 1525 1525 1525 1525 1524 1525 1525 1524 1524 1523 1523 1523 1522 1523 1522 1522
1533 1533 1533 1533 1531 1531 1530 1530 1530 1530 1529 1529 1529 1528 1528 1528 1528 1528 1528 1528 1528 1528 1528 1527 1527 1527 1526 1526 1526 1526 1525 1525 1525 1525 1525 1524 1523 1523 1523 1522 1522 1522 1521
1535 1535 1535 1534 1534 1533 1533 1532 1531 1531 1531 1531 1530 1530 1530 1530 1530 1530 1529 1529 1529 1529 1529 1529 1528 1528 1528 1527 1527 1527 1526 1526 1526 1526 1525 1524 1523 1523 1523 1522 1522 1521 1521
1535 1536 1536 1536 1535 1535 1535 1533 1533 1533 1532 1532 1532 1532 1532 1533 1532 1532 1531 1531 1530 1530 1530 1530 1530 1530 1529 1529 1528 1528 1528 1527 1526 1526 1525 1524 1524 1523 1523 1522 1522 1520 1519
1536 1537 1537 1537 1537 1537 1536 1536 1535 1535 1535 1535 1535 1534 1534 1534 1534 1533 1533 1532 1532 1532 1532 1531 1531 1531 1531 1531 1530 1529 1529 1529 1528 1527 1526 1525 1525 1524 1523 1523 1522 1520 1519
1537 1537 1537 1538 1538 1538 1537 1537 1537 1537 1536 1536 1536 1536 1535 1535 1535 1535 1535 1535 1534 1534 1534 1533 1534 1533 1533 1532 1532 1531 1530 1530 1529 1528 1527 1526 1526 1525 1524 1523 1522 1520 1519
1537 1538 1538 1538 1538 1539 1538 1538 1538 1538 1538 1538 1538 1538 1537 1537 1537 1537 1537 1537 1536 1536 1535 1535 1535 1535 1535 1534 1533 1533 1532 1531 1530 1530 1528 1527 1527 1526 1525 1524 1523 1522 1520
1537 1538 1538 1538 1539 1539 1539 1539 1539 1539 1539 1539 1538 1539 1539 1539 1539 1539 1538 1538 1538 1537 1537 1537 1537 1536 1536 1535 1535 1534 1533 1532 1532 1531 1530 1529 1528 1527 1526 1525 1524 1523 1522
1537 1538 1539 1539 1539 1540 1540 1540 1540 1540 1540 1540 1540 1540 1540 1540 1540 1540 1540 1539 1539 1539 1538 1538 1538 1537 1537 1536 1536 1535 1534 1534 1533 1532 1531 1530 1529 1528 1527 1526 1525 1524 1523
1537 1538 1538 1539 1539 1540 1540 1541 1541 1541 1541 1541 1541 1541 1541 1541 1541 1541 1541 1541 1540 1540 1540 1539 1539 1539 1538 1537 1537 1536 1536 1535 1534 1534 1533 1532 1531 1530 1528 1527 1526 1525 1525
1536 1537 1538 1538 1539 1540 1540 1541 1541 1542 1542 1542 1542 1542 1542 1542 1542 1542 1541 1541 1541 1541 1540 1540 1540 1540 1539 1539 1538 1538 1537 1536 1536 1535 1534 1533 1532 1531 1530 1528 1528 1527 1526
1535 1536 1537 1537 1538 1539 1540 1540 1541 1542 1542 1542 1542 1542 1542 1543 1542 1542 1542 1542 1542 1541 1541 1541 1541 1540 1540 1539 1539 1539 1538 1537 1537 1536 1536 1535 1533 1532 1531 1530 1529 1528 1527
1534 1535 1536 1537 1538 1539 1539 1540 1541 1541 1542 1542 1542 1543 1543 1543 1543 1543 1542 1542 1542 1542 1541 1541 1541 1541 1540 1540 1540 1540 1539 1538 1538 1537 1536 1536 1535 1534 1532 1531 1530 1529 1528
1532 1534 1535 1536 1537 1537 1538 1539 1540 1541 1541 1542 1542 1542 1542 1542 1542 1543 1542 1542 1542 1542 1542 1542 1541 1541 1541 1541 1541 1541 1540 1539 1539 1538 1537 1537 1536 1534 1533 1532 1531 1530 1529
1531 1532 1533 1534 1535 1536 1537 1538 1539 1540 1541 1541 1541 1542 1542 1542 1542 1542 1542 1542 1542 1542 1542 1542 1541 1541 1541 1541 1541 1541 1541 1542 1540 1539 1538 1537 1537 1536 1535 1533 1532 1531 1530
1529 1530 1531 1532 1534 1535 1536 1537 1538 1538 1539 1540 1540 1540 1540 1541 1541 1541 1541 1541 1541 1542 1542 1541 1541 1541 1541 1540 1540 1541 1541 1541 1541 1540 1539 1538 1537 1536 1535 1534 1533 1532 1531
1526 1528 1529 1531 1532 1533 1534 1535 1536 1536 1537 1538 1539 1539 1539 1539 1540 1540 1540 1540 1541 1541 1541 1541 1541 1541 1540 1540 1540 1540 1541 1540 1541 1540 1540 1539 1537 1536 1535 1534 1533 1532 1531
1524 1525 1527 1528 1530 1531 1532 1533 1534 1535 1536 1536 1537 1537 1538 1538 1538 1538 1539 1539 1539 1539 1540 1540 1540 1540 1540 1540 1540 1540 1540 1539 1540 1540 1539 1539 1538 1537 1535 1534 1533 1532 1531
1522 1523 1524 1526 1527 1529 1530 1531 1532 1533 1534 1534 1535 1536 1536 1536 1537 1537 1537 1537 1538 1538 1538 1539 1538 1538 1539 1539 1539 1539 1539 1539 1539 1539 1539 1538 1537 1537 1535 1534 1533 1532 1531